sat.trackr.live / text

‹ back to catalog

STARLINK-35073

NORAD 65385 · 2025-191G

PAYLOAD ACTIVE UNKNOWN

§ Identity

Operator
Country
US
Launch date
2025-08-30
Launch site
AFWTR
Launch vehicle
Mass (kg)
RCS (m²)

Purposes: comms

External: N2YO · Heavens-Above · Gunter

§ Orbital elements

Epoch: 2026-09-20T14:18:28.124640Z

Period
93.91 min
Inclination
97.2834°
Eccentricity
0.0001537
Mean motion
15.33449681 rev/d
Perigee alt
464.5 km
Apogee alt
466.6 km
Semi-major
6,843.7 km
B*
5.5708e-4
RAAN
129.6250°
Arg perigee
87.3978°
Mean anomaly
272.7441°
Rev number
5,965

§ Raw data

STARLINK-350731 65385U 25191G   26263.59615885  .00017955  00000+0  55708-3 0  99952 65385  97.2834 129.6250 0001537  87.3978 272.7441 15.33449681 59651

JSON: /api/v1/satellites/65385 · /tle

For live sub-satellite position, see the globe view (requires WebGL).

§ Visibility from observer

Set your observer location to see the next 7 days of passes ≥ 10°. The values pass through the URL so the page stays shareable.

No JS? Fill the form by hand. The geolocation button needs JavaScript.